N6861W KIZA-L35

Flight info

Callsign N6861W
Flight time N/A
Altitude 11500
Route KIZA DCT RZS DCT L35
Aircraft PA28/L-SDR/C

Departure

Time 2026-04-14 16:27
Airport Santa Ynez Airport (KIZA)

Arrival

Time N/A
Airport L35
Time Latitude Longitude Altitude Speed Heading
2026-04-14 16:09 34.60752 -120.07514 668 ft 0 kts 185°
2026-04-14 16:21 34.60746 -120.07534 668 ft 8 kts 272°
2026-04-14 16:21 34.60754 -120.07628 668 ft 14 kts 276°
2026-04-14 16:21 34.60750 -120.07686 667 ft 6 kts 235°
2026-04-14 16:21 34.60750 -120.07767 664 ft 14 kts 278°
2026-04-14 16:22 34.60768 -120.07915 659 ft 18 kts 278°
2026-04-14 16:22 34.60775 -120.07983 658 ft 0 kts 277°
2026-04-14 16:26 34.60777 -120.07997 658 ft 6 kts 264°
2026-04-14 16:26 34.60739 -120.08004 658 ft 6 kts 136°
2026-04-14 16:26 34.60730 -120.07943 659 ft 31 kts 99°
2026-04-14 16:26 34.60669 -120.07441 726 ft 79 kts 99°
2026-04-14 16:27 34.60508 -120.06795 1055 ft 80 kts 114°
2026-04-14 16:27 34.60208 -120.06168 1311 ft 92 kts 124°
2026-04-14 16:27 34.59847 -120.05458 1455 ft 108 kts 117°
2026-04-14 16:27 34.59545 -120.04540 1459 ft 128 kts 103°
2026-04-14 16:28 34.59368 -120.03469 1601 ft 128 kts 98°
2026-04-14 16:28 34.59162 -120.02403 1660 ft 135 kts 103°
2026-04-14 16:28 34.58957 -120.01288 1800 ft 132 kts 98°
2026-04-14 16:28 34.58751 -120.00213 1919 ft 131 kts 99°
2026-04-14 16:29 34.58396 -119.99197 2202 ft 127 kts 118°
2026-04-14 16:29 34.57836 -119.98450 2648 ft 114 kts 134°
2026-04-14 16:29 34.57302 -119.97797 3033 ft 105 kts 128°
2026-04-14 16:29 34.56849 -119.97169 3468 ft 94 kts 125°
2026-04-14 16:30 34.56499 -119.96523 3803 ft 89 kts 102°
2026-04-14 16:30 34.56330 -119.95824 4126 ft 87 kts 100°
2026-04-14 16:30 34.56147 -119.95126 4429 ft 88 kts 101°
2026-04-14 16:30 34.55987 -119.94371 4668 ft 96 kts 97°
2026-04-14 16:31 34.55806 -119.93586 4970 ft 97 kts 98°
2026-04-14 16:31 34.55626 -119.92796 5271 ft 97 kts 98°
2026-04-14 16:31 34.55442 -119.92005 5569 ft 97 kts 98°
2026-04-14 16:31 34.55254 -119.91221 5879 ft 96 kts 98°
2026-04-14 16:32 34.55071 -119.90440 6183 ft 96 kts 100°
2026-04-14 16:32 34.54880 -119.89668 6483 ft 96 kts 100°
2026-04-14 16:32 34.54668 -119.88902 6758 ft 96 kts 104°
2026-04-14 16:32 34.54443 -119.88141 7041 ft 96 kts 104°
2026-04-14 16:33 34.54211 -119.87382 7308 ft 96 kts 105°
2026-04-14 16:33 34.53976 -119.86623 7572 ft 97 kts 103°
2026-04-14 16:33 34.53736 -119.85857 7848 ft 97 kts 104°
2026-04-14 16:33 34.53494 -119.85092 8118 ft 97 kts 104°
2026-04-14 16:34 34.53252 -119.84325 8378 ft 98 kts 103°
2026-04-14 16:34 34.53008 -119.83552 8630 ft 98 kts 103°
2026-04-14 16:34 34.52762 -119.82778 8891 ft 98 kts 104°
2026-04-14 16:34 34.52517 -119.82009 9137 ft 97 kts 105°
2026-04-14 16:35 34.52275 -119.81245 9380 ft 97 kts 104°
2026-04-14 16:35 34.52036 -119.80492 9614 ft 97 kts 104°
2026-04-14 16:35 34.51790 -119.79717 9858 ft 97 kts 104°
2026-04-14 16:35 34.51548 -119.78952 10094 ft 97 kts 104°
2026-04-14 16:36 34.51306 -119.78191 10287 ft 100 kts 104°
2026-04-14 16:36 34.51052 -119.77391 10460 ft 103 kts 104°
2026-04-14 16:36 34.50912 -119.76558 10667 ft 100 kts 85°
2026-04-14 16:36 34.50856 -119.75709 10853 ft 102 kts 87°
2026-04-14 16:37 34.50794 -119.74853 11074 ft 102 kts 86°
2026-04-14 16:37 34.50731 -119.73995 11292 ft 103 kts 86°